Weather History for Monroe, MI

Change the Weather History Date:

Monday, October 28, 2013

  Actual Average Record
Temperature  
Mean Temperature 42 °F -  
Max Temperature 55 °F 57 °F 78 °F (1984)
Min Temperature 30 °F 38 °F 22 °F (1976)
Degree Days  
Heating Degree Days 22    
Moisture  
Dew Point 34 °F    
Average Humidity 73    
Maximum Humidity 93    
Minimum Humidity 54    
Precipitation  
Precipitation 0.00 in - - ()
Sea Level Pressure  
Sea Level Pressure 30.22 in    
Wind  
Wind Speed 3 mph (NE)    
Max Wind Speed 10 mph    
Max Gust Speed -    
Visibility 10 miles    
Events      
Averages and records for this station are not official NWS values.
T = Trace of Precipitation, MM = Missing Value Source: NWS Daily Summary

Daily Weather History Graph

Daily Weather History Graph

Search for Another Location

Airport:

Trip Planner

Search our weather history database for the weather conditions in past years. The results will help you decide how hot, cold, wet, or windy it might be!

Date:

Astronomy

Oct. 28, 2013 Rise Set
Actual Time 8:01 AM EDT 6:32 PM EDT
Civil Twilight 7:32 AM EDT 7:01 PM EDT
Nautical Twilight 7:00 AM EDT 7:34 PM EDT
Astronomical Twilight 6:27 AM EDT 8:06 PM EDT
Moon 1:48 AM EDT (10/28) 3:19 PM EDT (10/28)
Length of Visible Light 11h 28m
Length of Day
10h 30m
Waning Crescent, 34% of the Moon is Illuminated
Oct 28
Waning Crescent
Nov 3
New
Nov 10
First Quarter
Nov 17
Full
Nov 25
Last Quarter

Hourly Weather History & Observations

Time (EDT) Temp. Windchill Dew Point Humidity Pressure Visibility Wind Dir Wind Speed Gust Speed Precip Events Conditions
12:13 AM 39.2 °F 35.9 °F 30.2 °F 70% 30.03 in 10.0 mi SSW 4.6 mph - N/A   Clear
12:33 AM 39.2 °F 35.9 °F 30.2 °F 70% 30.04 in 10.0 mi SW 4.6 mph - N/A   Clear
12:53 AM 39.2 °F 37.0 °F 30.2 °F 70% 30.04 in 10.0 mi WSW 3.5 mph - N/A   Clear
1:14 AM 37.4 °F 34.9 °F 30.2 °F 75% 30.05 in 10.0 mi West 3.5 mph - N/A   Clear
1:34 AM 39.2 °F - 28.4 °F 65% 30.07 in 10.0 mi Calm Calm - N/A   Clear
1:54 AM 35.6 °F - 28.4 °F 75% 30.07 in 10.0 mi Calm Calm - N/A   Clear
2:14 AM 33.8 °F - 30.2 °F 87% 30.08 in 10.0 mi Calm Calm - N/A   Clear
2:34 AM 33.8 °F - 30.2 °F 87% 30.08 in 10.0 mi Calm Calm - N/A   Clear
2:54 AM 33.8 °F - 30.2 °F 87% 30.08 in 10.0 mi Calm Calm - N/A   Clear
3:14 AM 35.6 °F - 30.2 °F 81% 30.08 in 10.0 mi Calm Calm - N/A   Clear
3:35 AM 33.8 °F 30.8 °F 30.2 °F 87% 30.09 in 10.0 mi SSW 3.5 mph - N/A   Clear
3:55 AM 33.8 °F - 30.2 °F 87% 30.09 in 10.0 mi Calm Calm - N/A   Clear
4:15 AM 35.6 °F - 30.2 °F 81% 30.09 in 10.0 mi Calm Calm - N/A   Clear
4:35 AM 32.0 °F - 30.2 °F 93% 30.10 in 10.0 mi Calm Calm - N/A   Clear
4:55 AM 32.0 °F - 30.2 °F 93% 30.10 in 10.0 mi Calm Calm - N/A   Clear
5:15 AM 33.8 °F - 30.2 °F 87% 30.11 in 10.0 mi Calm Calm - N/A   Clear
5:35 AM 32.0 °F - 28.4 °F 87% 30.12 in 10.0 mi Calm Calm - N/A   Clear
5:55 AM 33.8 °F - 30.2 °F 87% 30.12 in 10.0 mi Calm Calm - N/A   Clear
6:15 AM 30.2 °F - 28.4 °F 93% 30.13 in 10.0 mi Calm Calm - N/A   Clear
6:36 AM 33.8 °F - 30.2 °F 87% 30.13 in 10.0 mi Calm Calm - N/A   Clear
6:56 AM 33.8 °F - 30.2 °F 87% 30.13 in 10.0 mi Calm Calm - N/A   Clear
7:16 AM 30.2 °F - 28.4 °F 93% 30.14 in 10.0 mi Calm Calm - N/A   Clear
7:36 AM 30.2 °F - 28.4 °F 93% 30.15 in 10.0 mi Calm Calm - N/A   Clear
7:56 AM 30.2 °F 24.3 °F 28.4 °F 93% 30.16 in 10.0 mi NNW 5.8 mph - N/A   Clear
8:16 AM 32.0 °F 28.7 °F 28.4 °F 87% 30.18 in 10.0 mi NW 3.5 mph - N/A   Scattered Clouds
8:36 AM 32.0 °F - 28.4 °F 87% 30.19 in 10.0 mi Calm Calm - N/A   Mostly Cloudy
8:56 AM 33.8 °F - 30.2 °F 87% 30.20 in 10.0 mi Calm Calm - N/A   Mostly Cloudy
9:16 AM 35.6 °F - 32.0 °F 87% 30.21 in 10.0 mi Calm Calm - N/A   Overcast
9:36 AM 37.4 °F - 33.8 °F 87% 30.22 in 10.0 mi Calm Calm - N/A   Overcast
9:56 AM 39.2 °F - 33.8 °F 81% 30.22 in 10.0 mi Calm Calm - N/A   Mostly Cloudy
10:17 AM 42.8 °F - 33.8 °F 70% 30.23 in 10.0 mi Calm Calm - N/A   Scattered Clouds
10:32 AM 42.8 °F 41.1 °F 35.6 °F 76% 30.23 in 10.0 mi North 3.5 mph - N/A   Scattered Clouds
10:52 AM 46.4 °F 44.3 °F 35.6 °F 66% 30.24 in 10.0 mi NE 4.6 mph - N/A   Scattered Clouds
11:12 AM 46.4 °F 44.3 °F 37.4 °F 71% 30.25 in 10.0 mi NE 4.6 mph - N/A   Scattered Clouds
11:32 AM 48.2 °F - 37.4 °F 66% 30.25 in 10.0 mi ENE 5.8 mph - N/A   Scattered Clouds
11:52 AM 51.8 °F - 37.4 °F 58% 30.26 in 10.0 mi ENE 5.8 mph - N/A   Mostly Cloudy
12:12 PM 53.6 °F - 39.2 °F 58% 30.26 in 10.0 mi ENE 6.9 mph - N/A   Scattered Clouds
12:32 PM 53.6 °F - 41.0 °F 62% 30.26 in 10.0 mi ENE 8.1 mph - N/A   Overcast
12:52 PM 53.6 °F - 39.2 °F 58% 30.26 in 10.0 mi East 5.8 mph - N/A   Mostly Cloudy
1:13 PM 53.6 °F - 39.2 °F 58% 30.26 in 10.0 mi East 6.9 mph - N/A   Mostly Cloudy
1:33 PM 53.6 °F - 39.2 °F 58% 30.26 in 10.0 mi East 6.9 mph - N/A   Scattered Clouds
1:53 PM 55.4 °F - 39.2 °F 54% 30.26 in 10.0 mi ENE 8.1 mph - N/A   Scattered Clouds
2:13 PM 55.4 °F - 39.2 °F 54% 30.26 in 10.0 mi ENE 9.2 mph - N/A   Mostly Cloudy
2:33 PM 55.4 °F - 39.2 °F 54% 30.26 in 7.0 mi ENE 8.1 mph - N/A   Mostly Cloudy
2:53 PM 53.6 °F - 39.2 °F 58% 30.26 in 10.0 mi East 8.1 mph - N/A   Scattered Clouds
3:13 PM 53.6 °F - 37.4 °F 54% 30.26 in 10.0 mi NE 4.6 mph - N/A   Mostly Cloudy
3:33 PM 51.8 °F - 39.2 °F 62% 30.27 in 10.0 mi ENE 10.4 mph - N/A   Overcast
3:53 PM 51.8 °F - 39.2 °F 62% 30.27 in 10.0 mi NE 8.1 mph - N/A   Overcast
4:13 PM 51.8 °F - 39.2 °F 62% 30.27 in 10.0 mi NE 8.1 mph - N/A   Overcast
4:33 PM 51.8 °F - 39.2 °F 62% 30.28 in 10.0 mi NE 9.2 mph - N/A   Mostly Cloudy
4:54 PM 51.8 °F - 39.2 °F 62% 30.28 in 10.0 mi ENE 6.9 mph - N/A   Scattered Clouds
5:14 PM 51.8 °F - 39.2 °F 62% 30.28 in 10.0 mi ENE 6.9 mph - N/A   Clear
5:34 PM 51.8 °F - 39.2 °F 62% 30.28 in 10.0 mi NE 5.8 mph - N/A   Clear
5:54 PM 48.2 °F - 37.4 °F 66% 30.28 in 10.0 mi ENE 8.1 mph - N/A   Clear
6:14 PM 48.2 °F - 37.4 °F 66% 30.29 in 10.0 mi ENE 5.8 mph - N/A   Clear
6:34 PM 46.4 °F 42.9 °F 37.4 °F 71% 30.30 in 10.0 mi ENE 6.9 mph - N/A   Clear
6:54 PM 46.4 °F 44.3 °F 37.4 °F 71% 30.30 in 10.0 mi ENE 4.6 mph - N/A   Clear
7:14 PM 46.4 °F 42.9 °F 35.6 °F 66% 30.31 in 10.0 mi ENE 6.9 mph - N/A   Clear
7:34 PM 44.6 °F 43.1 °F 35.6 °F 71% 30.31 in 10.0 mi ENE 3.5 mph - N/A   Clear
7:55 PM 44.6 °F 41.4 °F 35.6 °F 71% 30.32 in 10.0 mi NE 5.8 mph - N/A   Clear
8:15 PM 44.6 °F 42.2 °F 35.6 °F 71% 30.32 in 10.0 mi NE 4.6 mph - N/A   Clear
8:35 PM 44.6 °F 40.7 °F 35.6 °F 71% 30.32 in 10.0 mi NE 6.9 mph - N/A   Clear
8:55 PM 42.8 °F 38.6 °F 35.6 °F 76% 30.32 in 10.0 mi NE 6.9 mph - N/A   Mostly Cloudy
9:15 PM 42.8 °F 39.3 °F 33.8 °F 70% 30.33 in 10.0 mi NNE 5.8 mph - N/A   Mostly Cloudy
9:35 PM 42.8 °F 39.3 °F 33.8 °F 70% 30.33 in 10.0 mi NE 5.8 mph - N/A   Overcast
9:55 PM 44.6 °F 41.4 °F 33.8 °F 66% 30.34 in 10.0 mi NNE 5.8 mph - N/A   Overcast
10:15 PM 42.8 °F 39.3 °F 33.8 °F 70% 30.35 in 10.0 mi NNE 5.8 mph - N/A   Overcast
10:35 PM 42.8 °F 39.3 °F 33.8 °F 70% 30.35 in 10.0 mi NNE 5.8 mph - N/A   Mostly Cloudy
10:55 PM 41.0 °F 38.0 °F 33.8 °F 76% 30.36 in 10.0 mi NNE 4.6 mph - N/A   Scattered Clouds
11:15 PM 39.2 °F 35.0 °F 32.0 °F 75% 30.37 in 10.0 mi NNE 5.8 mph - N/A   Clear
11:35 PM 39.2 °F 35.9 °F 32.0 °F 75% 30.36 in 10.0 mi NNE 4.6 mph - N/A   Clear
11:56 PM 39.2 °F 35.0 °F 30.2 °F 70% 30.36 in 10.0 mi NNE 5.8 mph - N/A   Clear